Location: Asheville, NC
(35.6000°N, 82.5500°W)
Time: 14:52:02
(UTC-05:00)

OTV 5 (USA 277) - Pass Details

Date: 12 December 2017
Orbit: 404 x 417 km, 43.0° (Epoch: 07 September)

Event Time Altitude Azimuth Distance (km) Brightness Sun altitude
Rises 19:02:28 0° 298° (WNW) 2,351 ? -20.7°
Reaches altitude 10° 19:04:35 10° 302° (WNW) 1,487 ? -21.1°
Enters shadow 19:07:02 42° 324° (NW) 608 ? -21.6°
